EW7630 Weather Reports


time (UTC)temp
C
wind
direction
speed
KPH
gust
KPH
rain 1hr
cm
rain 24hr
cm
rain mn
cm
humidity
%
barometer
mb
20260906022034 28 0.0 0.0 0.00 0.00 0.00 78 1011.0
20260906021031 28 0.0 0.0 0.00 0.00 0.00 78 1010.9
20260906020033 28 0.0 0.0 0.00 0.00 0.00 77 1010.6
20260906015032 28 0.0 0.0 0.00 0.00 0.00 77 1010.6
20260906014027 28 0 0.0 1.6 0.00 0.00 0.00 76 1010.5
20260906013028 28 0.0 0.0 0.00 0.00 0.00 74 1010.4
20260906012050 28 0 0.0 1.6 0.00 0.00 0.00 73 1010.4
20260906011032 29 0.0 0.0 0.00 0.00 0.00 71 1010.2
20260906010034 29 0.0 0.0 0.00 0.00 0.00 70 1010.1
20260906005035 30 0.0 0.0 0.00 0.00 0.00 68 1010.0
20260906004018 30 0.0 0.0 0.00 0.00 0.00 67 1010.0
20260906003018 30 23 0.0 3.2 0.00 0.00 0.00 64 1010.0
20260906002026 31 348 1.6 3.2 0.00 0.00 0.00 63 1010.1
20260906001022 31 0.0 0.0 0.00 0.00 0.00 62 1010.1
20260906000020 31 68 0.0 3.2 0.00 0.00 0.00 61 1010.1
20260905235028 32 258 1.6 3.2 0.00 0.00 0.00 59 1010.1
20260905234052 32 279 0.0 3.2 0.00 0.00 0.00 57 1010.1
20260905233032 32 102 1.6 4.8 0.00 0.00 0.00 57 1010.0
20260905232029 33 266 3.2 3.2 0.00 0.00 0.00 56 1010.0
20260905231053 33 0.0 0.0 0.00 0.00 0.00 57 1010.0
20260905230029 32 161 0.0 3.2 0.00 0.00 0.00 59 1010.2
20260905225031 32 137 1.6 3.2 0.00 0.00 0.00 60 1010.3
20260905224033 34 152 4.8 9.7 0.00 0.00 0.00 57 1010.4
20260905223034 34 131 1.6 4.8 0.00 0.00 0.00 56 1010.3
20260905222054 35 155 3.2 4.8 0.00 0.00 0.00 55 1009.9
20260905221018 35 274 4.8 8.0 0.00 0.00 0.00 53 1010.2
20260905220038 35 276 3.2 6.4 0.00 0.00 0.00 55 1009.9
20260905215026 35 243 3.2 6.4 0.00 0.00 0.00 52 1009.8
20260905214022 36 260 4.8 8.0 0.00 0.00 0.00 45 1009.8
20260905213020 36 291 3.2 4.8 0.00 0.00 0.00 49 1009.8
20260905212027 34 11 6.4 8.0 0.00 0.00 0.00 56 1010.0
20260905211050 37 335 8.0 12.9 0.00 0.00 0.00 48 1010.0
20260905210031 37 0 4.8 9.7 0.00 0.00 0.00 48 1010.1
20260905205034 37 349 3.2 6.4 0.00 0.00 0.00 49 1010.1
20260905204018 37 337 4.8 8.0 0.00 0.00 0.00 50 1010.1
20260905203020 36 347 3.2 6.4 0.00 0.00 0.00 49 1010.3
20260905202021 36 9 3.2 6.4 0.00 0.00 0.00 50 1010.3
20260905201023 37 244 3.2 6.4 0.00 0.00 0.00 46 1010.5
20260905200026 38 306 4.8 8.0 0.00 0.00 0.00 47 1010.5
20260905195027 -17 248 3.2 3.2 0.00 0.00 0.00 1010.5
20260905194028 37 348 6.4 8.0 0.00 0.00 0.00 48 1010.6
20260905193030 37 273 4.8 9.7 0.00 0.00 0.00 47 1010.8
20260905192027 37 325 4.8 8.0 0.00 0.00 0.00 48 1010.9
20260905191022 37 264 6.4 14.5 0.00 0.00 0.00 47 1011.0
20260905190019 37 315 4.8 8.0 0.00 0.00 0.00 49 1011.2
20260905185021 37 261 3.2 11.3 0.00 0.00 0.00 48 1011.3
20260905184037 36 315 4.8 8.0 0.00 0.00 0.00 50 1011.4
20260905183020 36 341 3.2 6.4 0.00 0.00 0.00 50 1011.4
20260905182034 36 278 3.2 4.8 0.00 0.00 0.00 52 1011.6
20260905181018 36 276 4.8 11.3 0.00 0.00 0.00 51 1011.7
20260905180020 37 0 3.2 8.0 0.00 0.00 0.00 53 1011.8
20260905175022 37 256 4.8 8.0 0.00 0.00 0.00 52 1011.8
20260905174024 37 63 3.2 4.8 0.00 0.00 0.00 53 1011.8
20260905173020 37 339 3.2 8.0 0.00 0.00 0.00 52 1011.9
20260905172113 36 179 3.2 4.8 0.00 0.00 0.00 55 1011.9
20260905171034 36 356 3.2 8.0 0.00 0.00 0.00 54 1012.2
20260905170051 36 239 3.2 6.4 0.00 0.00 0.00 56 1012.2
20260905165027 36 192 1.6 4.8 0.00 0.00 0.00 59 1012.4
20260905164025 35 244 3.2 8.0 0.00 0.00 0.00 61 1012.6
20260905163020 35 302 4.8 6.4 0.00 0.00 0.00 61 1012.7
20260905162033 34 292 3.2 9.7 0.00 0.00 0.00 61 1012.6
20260905161018 34 266 6.4 8.0 0.00 0.00 0.00 61 1012.7
20260905160041 34 271 3.2 8.0 0.00 0.00 0.00 61 1012.7
20260905155043 33 224 3.2 4.8 0.00 0.00 0.00 63 1012.7
20260905154024 33 183 3.2 6.4 0.00 0.00 0.00 63 1012.7
20260905153027 33 268 3.2 8.0 0.00 0.00 0.00 65 1012.7
20260905152029 32 276 4.8 8.0 0.00 0.00 0.00 65 1012.7
20260905151031 32 280 4.8 6.4 0.00 0.00 0.00 65 1012.7
20260905150033 32 8 4.8 8.0 0.00 0.00 0.00 63 1012.6
20260905145033 32 262 3.2 8.0 0.00 0.00 0.00 64 1012.6
20260905144058 32 281 3.2 8.0 0.00 0.00 0.00 66 1012.5
20260905143017 31 346 3.2 8.0 0.00 0.00 0.00 68 1012.5
20260905142026 31 305 3.2 9.7 0.00 0.00 0.00 69 1012.6
20260905141022 30 287 4.8 6.4 0.00 0.00 0.00 71 1012.6
20260905140019 30 0.0 0.0 0.00 0.00 0.00 74 1012.5
20260905135028 29 0.0 0.0 0.00 0.00 0.00 77 1012.5
20260905134029 28 0.0 0.0 0.00 0.00 0.00 80 1012.5
20260905133031 27 0.0 0.0 0.00 0.00 0.00 82 1012.4
20260905132033 26 291 3.2 6.4 0.00 0.00 0.00 87 1012.4
20260905131017 25 0.0 0.0 0.00 0.00 0.00 92 1012.5
20260905130020 25 0.0 0.0 0.00 0.00 0.00 93 1012.4
20260905125022 25 0.0 0.0 0.00 0.00 0.00 93 1012.3
20260905124045 24 0.0 0.0 0.00 0.00 0.00 93 1012.3
20260905123026 24 0.0 0.0 0.00 0.00 0.00 93 1012.0
20260905122029 24 0.0 0.0 0.00 0.00 0.00 93 1012.1
20260905121030 23 0.0 0.0 0.00 0.00 0.00 93 1011.9
20260905120030 23 0.0 0.0 0.00 0.00 0.00 93 1011.8
20260905115027 23 0.0 0.0 0.00 0.00 0.00 93 1011.6
20260905114024 23 0.0 0.0 0.00 0.00 0.00 93 1011.5
20260905113019 23 0.0 0.0 0.00 0.00 0.00 93 1011.6
20260905112022 23 0.0 0.0 0.00 0.00 0.00 93 1011.5
20260905111019 23 0.0 0.0 0.00 0.00 0.00 93 1011.4
20260905110020 23 0.0 0.0 0.00 0.00 0.00 93 1011.5
20260905105017 23 0.0 0.0 0.00 0.00 0.00 93 1011.5
20260905104024 24 0.0 0.0 0.00 0.00 0.00 93 1011.5
20260905103022 24 0.0 0.0 0.00 0.00 0.00 93 1011.5
20260905102024 24 0.0 0.0 0.00 0.00 0.00 93 1011.5
20260905101027 24 0.0 0.0 0.00 0.00 0.00 92 1011.5
20260905100049 24 0.0 0.0 0.00 0.00 0.00 91 1011.4
20260905095030 24 0.0 0.0 0.00 0.00 0.00 91 1011.5
20260905094030 25 0.0 0.0 0.00 0.00 0.00 91 1011.6
20260905093031 25 0.0 0.0 0.00 0.00 0.00 90 1011.5
20260905092027 25 0.0 0.0 0.00 0.00 0.00 90 1011.5
20260905091024 25 0.0 0.0 0.00 0.00 0.00 90 1011.6
20260905090020 25 0.0 0.0 0.00 0.00 0.00 90 1011.5
20260905085034 25 0.0 0.0 0.00 0.00 0.00 89 1011.6
20260905084018 25 0.0 0.0 0.00 0.00 0.00 89 1011.7
20260905083020 25 0.0 0.0 0.00 0.00 0.00 88 1011.6
20260905082022 25 0.0 0.0 0.00 0.00 0.00 88 1011.7
20260905081045 25 0.0 0.0 0.00 0.00 0.00 88 1011.8
20260905080027 25 0.0 0.0 0.00 0.00 0.00 88 1011.9
20260905075029 25 0.0 0.0 0.00 0.00 0.00 88 1011.9
20260905074033 25 0.0 0.0 0.00 0.00 0.00 89 1011.9
20260905073033 25 0.0 0.0 0.00 0.00 0.00 89 1012.0
20260905072034 25 0.0 0.0 0.00 0.00 0.00 89 1012.0
20260905071019 25 0.0 0.0 0.00 0.00 0.00 89 1012.0
20260905070018 25 0.0 0.0 0.00 0.00 0.00 88 1012.0
20260905065027 25 0.0 0.0 0.00 0.00 0.00 88 1012.0
20260905064022 25 0.0 0.0 0.00 0.00 0.00 87 1012.0
20260905063039 26 0.0 0.0 0.00 0.00 0.00 88 1012.0
20260905062032 26 0.0 0.0 0.00 0.00 0.00 87 1012.2
20260905061034 26 0.0 0.0 0.00 0.00 0.00 86 1012.2
20260905060031 26 0.0 0.0 0.00 0.00 0.00 86 1012.1
20260905055033 26 0.0 0.0 0.00 0.00 0.00 86 1012.2
20260905054018 26 0.0 0.0 0.00 0.00 0.00 86 1012.2
20260905053021 26 0.0 0.0 0.00 0.00 0.00 86 1012.2
20260905052021 26 0.0 0.0 0.00 0.00 0.00 86 1012.1
20260905051022 26 0.0 0.0 0.00 0.00 0.00 86 1011.9
20260905050045 26 338 0.0 1.6 0.00 0.00 0.00 87 1012.0
20260905045025 26 0.0 0.0 0.00 0.00 0.00 86 1012.0
20260905044026 26 0.0 0.0 0.00 0.00 0.00 85 1012.0
20260905043028 26 0.0 0.0 0.00 0.00 0.00 85 1011.9
20260905042022 26 0.0 0.0 0.00 0.00 0.00 84 1011.9
20260905041019 27 0.0 0.0 0.00 0.00 0.00 83 1011.8
20260905040056 27 0.0 0.0 0.00 0.00 0.00 83 1011.9
20260905035018 27 0.0 0.0 0.00 0.00 0.00 81 1011.9
20260905034020 27 0.0 0.0 0.00 0.00 0.00 81 1011.9
20260905033022 27 0.0 0.0 0.00 0.00 0.00 81 1012.0
20260905032024 27 0.0 0.0 0.00 0.00 0.00 80 1012.1
20260905031026 27 0.0 0.0 0.00 0.00 0.00 80 1012.0
20260905030028 27 0.0 0.0 0.00 0.00 0.00 79 1012.1
20260905025031 28 0.0 0.0 0.00 0.00 0.00 78 1012.1
20260905024034 28 0.0 0.0 0.00 0.00 0.00 76 1012.0
20260905023032 28 0.0 0.0 0.00 0.00 0.00 74 1011.8